Retour au catalogue

STARLINK-4651

ActifCommunicationsVLEO
NORAD 53729·PAYLOAD·🇺🇸 United States

Lancé Sep 5, 2022 depuis Cape Canaveral Space Force Station

Loading…

Prochains Passages (prochaines 24 heures)

TLE

FraisSource: CelesTrak SupGP

Époque: Sep 14, 2026, 22:09 UTC

1 53729C 22107AF  26257.92340278 -.00022445  00000+0 -64236-3 0  2574
2 53729  53.1586 116.1662 0001348  85.0624 260.4299 15.35399917    15

Suivez STARLINK-4651 en temps réel avec AllMySat

Download on the App Store